Main page
METAR-TAF:

METAR-TAF

Airports :

Baker Municipal Airport

Baker, Montana, United States

latitude: 46-20-52N, longitude: 104-15-27W, elevation: 2968 ft

Current weather observation

The report was made 1 hour and 0 minutes ago, at 06:51 UTC
Wind 10 mph from the Southwest
Temperature 46°F
Humidity 76%
Pressure 29.88 in. Hg
Visibility: 10 miles
Overcast at a height of 11000 ft

METAR: KBHK 220651Z AUTO 22009KT 10SM OVC110 08/04 A2988 RMK AO2 SLP116 T00780039 401780022

Time: 01:51 (07:51 UTC)


TAF: missing

Weather observations and forecasts of more than 4000 airports (METAR and TAF reports).

The available stations are represented by yellow and red dots on the map.

Hover mouse over dot to see the name of the station.

Then click to see weather observations and forecasts.

To change the map : click on the green buttons with a black cross to zoom in, on the green button with a dash to zoom out, or on the green arrows for adjacent maps.


METAR-TAF: